• In Hungary
  • List of Countries
  • For 7 days
  • Water Temperature
  • Satellite Maps
  • Weather Map
  • News
  • Weather Widgets
  • user-avatar
    Login

    Hourly Weather Novomuraptalovo

    Today, 22 July, Sunday

    Time Temperature Precipitation Wind Pressure Humidity
    00:00 +17°C° 0 mm 5 mps 744 mmHg 77%
    01:00 +17°C° 0 mm 5 mps 744 mmHg 77%
    02:00 +16°C° 0 mm 5 mps 744 mmHg 76%
    03:00 +16°C° 0 mm 5 mps 744 mmHg 76%
    04:00 +16°C° 0 mm 5 mps 744 mmHg 75%
    05:00 +16°C° 0 mm 5 mps 744 mmHg 73%
    06:00 +16°C° 0 mm 6 mps 745 mmHg 71%
    07:00 +16°C° 0 mm 7 mps 745 mmHg 70%
    08:00 +17°C° 0 mm 7 mps 745 mmHg 65%
    09:00 +18°C° 0 mm 7 mps 745 mmHg 61%
    10:00 +20°C° 0 mm 7 mps 746 mmHg 57%
    11:00 +20°C° 0 mm 7 mps 746 mmHg 55%
    12:00 +21°C° 0 mm 7 mps 746 mmHg 52%
    13:00 +22°C° 0 mm 7 mps 746 mmHg 50%
    14:00 +22°C° 0 mm 7 mps 746 mmHg 51%
    15:00 +22°C° 0 mm 6 mps 746 mmHg 52%
    16:00 +22°C° 0 mm 6 mps 747 mmHg 53%
    17:00 +21°C° 0 mm 5 mps 747 mmHg 57%
    18:00 +20°C° 0 mm 5 mps 747 mmHg 61%
    19:00 +19°C° 0 mm 4 mps 747 mmHg 65%
    20:00 +18°C° 0 mm 4 mps 747 mmHg 63%
    21:00 +17°C° 0 mm 4 mps 748 mmHg 61%
    22:00 +15°C° 0 mm 5 mps 748 mmHg 60%
    23:00 +15°C° 0 mm 4 mps 748 mmHg 60%

    Tomorrow, 23 July, Monday

    Time Temperature Precipitation Wind Pressure Humidity
    00:00 +14°C° 0 mm 4 mps 749 mmHg 60%
    01:00 +14°C° 0 mm 4 mps 749 mmHg 60%
    02:00 +14°C° 0 mm 4 mps 749 mmHg 62%
    03:00 +13°C° 0 mm 4 mps 749 mmHg 63%
    04:00 +13°C° 0 mm 4 mps 750 mmHg 64%
    05:00 +13°C° 0 mm 4 mps 750 mmHg 65%
    06:00 +14°C° 0 mm 5 mps 750 mmHg 66%
    07:00 +14°C° 0 mm 5 mps 750 mmHg 67%
    08:00 +15°C° 0 mm 5 mps 750 mmHg 64%
    09:00 +17°C° 0 mm 5 mps 750 mmHg 60%
    10:00 +19°C° 0 mm 5 mps 750 mmHg 56%
    11:00 +20°C° 0 mm 5 mps 750 mmHg 53%
    12:00 +21°C° 0 mm 5 mps 750 mmHg 51%
    13:00 +22°C° 0 mm 5 mps 750 mmHg 48%
    14:00 +23°C° 0 mm 4 mps 750 mmHg 48%
    15:00 +23°C° 0 mm 4 mps 750 mmHg 48%
    16:00 +25°C° 0 mm 4 mps 750 mmHg 47%
    17:00 +24°C° 0 mm 3 mps 750 mmHg 53%
    18:00 +22°C° 0 mm 3 mps 750 mmHg 58%
    19:00 +21°C° 0 mm 2 mps 750 mmHg 64%
    20:00 +20°C° 0 mm 2 mps 750 mmHg 67%
    21:00 +18°C° 0 mm 2 mps 751 mmHg 70%
    22:00 +16°C° 0 mm 2 mps 751 mmHg 73%
    23:00 +16°C° 0 mm 2 mps 751 mmHg 75%

    Day after tomorrow, 24 July, Tuesday

    Time Temperature Precipitation Wind Pressure Humidity
    00:00 +14°C° 0 mm 3 mps 751 mmHg 77%
    01:00 +13°C° 0 mm 3 mps 751 mmHg 79%
    02:00 +13°C° 0 mm 3 mps 752 mmHg 81%
    03:00 +14°C° 0 mm 2 mps 752 mmHg 83%
    04:00 +13°C° 0 mm 2 mps 752 mmHg 85%
    05:00 +15°C° 0 mm 2 mps 752 mmHg 81%
    06:00 +16°C° 0 mm 2 mps 752 mmHg 78%
    07:00 +18°C° 0 mm 2 mps 752 mmHg 75%
    08:00 +19°C° 0 mm 2 mps 752 mmHg 68%
    09:00 +21°C° 0 mm 3 mps 752 mmHg 62%
    10:00 +24°C° 0 mm 3 mps 752 mmHg 56%
    11:00 +25°C° 0 mm 3 mps 752 mmHg 54%
    12:00 +26°C° 0 mm 3 mps 752 mmHg 51%
    13:00 +28°C° 0 mm 3 mps 752 mmHg 48%
    14:00 +28°C° 0 mm 3 mps 752 mmHg 48%
    15:00 +28°C° 0 mm 2 mps 752 mmHg 48%
    16:00 +29°C° 0 mm 2 mps 751 mmHg 47%
    17:00 +28°C° 0 mm 2 mps 752 mmHg 53%
    18:00 +27°C° 0 mm 2 mps 752 mmHg 59%
    19:00 +26°C° 0 mm 2 mps 752 mmHg 65%
    20:00 +24°C° 0 mm 2 mps 752 mmHg 69%
    21:00 +23°C° 0 mm 2 mps 752 mmHg 73%
    22:00 +20°C° 0 mm 2 mps 752 mmHg 78%
    23:00 +20°C° 0 mm 2 mps 752 mmHg 79%

    25 July, Wednesday

    Time Temperature Precipitation Wind Pressure Humidity
    00:00 +19°C° 0 mm 2 mps 752 mmHg 80%
    01:00 +18°C° 0 mm 2 mps 752 mmHg 81%
    02:00 +19°C° 0 mm 1 mps 752 mmHg 82%
    03:00 +19°C° 0 mm 1 mps 753 mmHg 82%
    04:00 +18°C° 0 mm 1 mps 753 mmHg 82%
    05:00 +20°C° 0 mm 1 mps 753 mmHg 78%
    06:00 +21°C° 0 mm 1 mps 753 mmHg 75%
    07:00 +22°C° 0 mm 1 mps 753 mmHg 71%
    08:00 +24°C° 0 mm 1 mps 753 mmHg 66%
    09:00 +26°C° 0 mm 2 mps 753 mmHg 61%
    10:00 +27°C° 0 mm 2 mps 753 mmHg 56%
    11:00 +28°C° 0 mm 2 mps 753 mmHg 52%
    12:00 +29°C° 0 mm 2 mps 753 mmHg 48%
    13:00 +30°C° 0 mm 2 mps 753 mmHg 44%
    14:00 +30°C° 0 mm 2 mps 753 mmHg 46%
    15:00 +29°C° 0 mm 2 mps 753 mmHg 48%
    16:00 +29°C° 0 mm 2 mps 753 mmHg 50%
    17:00 +28°C° 0 mm 2 mps 752 mmHg 54%
    18:00 +27°C° 0 mm 2 mps 752 mmHg 58%
    19:00 +27°C° 0 mm 2 mps 752 mmHg 62%
    20:00 +25°C° 0 mm 2 mps 753 mmHg 63%
    21:00 +24°C° 0 mm 2 mps 753 mmHg 65%
    22:00 +23°C° 0 mm 2 mps 753 mmHg 66%
    23:00 +23°C° 0 mm 2 mps 753 mmHg 67%

    26 July, Thursday

    Time Temperature Precipitation Wind Pressure Humidity
    00:00 +21°C° 0 mm 2 mps 753 mmHg 68%
    01:00 +21°C° 0 mm 2 mps 753 mmHg 69%
    02:00 +20°C° 0 mm 2 mps 753 mmHg 72%
    03:00 +19°C° 0 mm 2 mps 753 mmHg 75%
    04:00 +19°C° 0 mm 2 mps 753 mmHg 78%
    05:00 +19°C° 0 mm 3 mps 753 mmHg 76%
    06:00 +20°C° 0 mm 3 mps 753 mmHg 74%
    07:00 +21°C° 0 mm 3 mps 754 mmHg 72%
    08:00 +24°C° 0 mm 3 mps 754 mmHg 66%
    09:00 +25°C° 0 mm 3 mps 754 mmHg 60%
    10:00 +27°C° 0 mm 4 mps 754 mmHg 54%
    11:00 +28°C° 0 mm 4 mps 754 mmHg 52%
    12:00 +28°C° 0 mm 4 mps 753 mmHg 49%
    13:00 +29°C° 0 mm 4 mps 753 mmHg 47%
    14:00 +29°C° 0 mm 4 mps 753 mmHg 46%
    15:00 +29°C° 0 mm 3 mps 753 mmHg 45%
    16:00 +29°C° 0 mm 3 mps 753 mmHg 44%
    17:00 +28°C° 0 mm 3 mps 753 mmHg 49%
    18:00 +27°C° 0 mm 2 mps 753 mmHg 54%
    19:00 +27°C° 0 mm 2 mps 753 mmHg 59%
    20:00 +25°C° 0 mm 2 mps 753 mmHg 63%
    21:00 +23°C° 0 mm 2 mps 753 mmHg 67%
    22:00 +21°C° 0 mm 3 mps 753 mmHg 72%
    23:00 +20°C° 0 mm 3 mps 753 mmHg 73%

    27 July, Friday

    Time Temperature Precipitation Wind Pressure Humidity
    00:00 +20°C° 0 mm 3 mps 753 mmHg 75%
    01:00 +19°C° 0 mm 3 mps 753 mmHg 76%
    02:00 +19°C° 0 mm 3 mps 753 mmHg 77%
    03:00 +19°C° 0 mm 3 mps 753 mmHg 77%
    04:00 +19°C° 0 mm 3 mps 753 mmHg 77%
    05:00 +20°C° 0 mm 3 mps 753 mmHg 75%
    06:00 +21°C° 0 mm 3 mps 753 mmHg 74%
    07:00 +22°C° 0 mm 3 mps 754 mmHg 72%
    08:00 +24°C° 0 mm 3 mps 753 mmHg 68%
    09:00 +26°C° 0 mm 3 mps 753 mmHg 64%
    10:00 +27°C° 0 mm 3 mps 753 mmHg 60%
    11:00 +29°C° 0 mm 3 mps 753 mmHg 54%
    12:00 +30°C° 0 mm 3 mps 753 mmHg 49%
    13:00 +31°C° 0 mm 3 mps 753 mmHg 43%
    14:00 +31°C° 0 mm 3 mps 753 mmHg 44%
    15:00 +31°C° 0 mm 3 mps 752 mmHg 46%
    16:00 +31°C° 0 mm 2 mps 752 mmHg 47%
    17:00 +30°C° 0 mm 2 mps 752 mmHg 52%
    18:00 +29°C° 0 mm 2 mps 752 mmHg 56%
    19:00 +28°C° 0 mm 2 mps 752 mmHg 61%
    20:00 +27°C° 0 mm 2 mps 752 mmHg 63%
    21:00 +25°C° 0 mm 2 mps 752 mmHg 66%
    22:00 +24°C° 0 mm 2 mps 752 mmHg 68%
    23:00 +23°C° 0 mm 2 mps 752 mmHg 69%
    Show more